Regional Weather Roundup
Issued by NWS Glasgow, MT

Home | Current Version | Previous Version | Text Only | Print | Product List | Glossary On
Versions: 1 2 3 4 5 6 7 8 9 10 11 12 13 14 15 16 17 18 19 20 21 22 23 24 25 26 27 28 29 30 31 32 33 34 35 36 37 38 39 40 41 42 43 44 45 46 47 48 49 50
000
ASUS45 KGGW 260915
RWRGGW
HOURLY WEATHER ROUNDUP FOR NORTHEAST MONTANA
NATIONAL WEATHER SERVICE GLASGOW MONTANA
200 AM MST FRI DEC 26 2014

NOTE: "FAIR" INDICATES FEW OR NO CLOUDS BELOW 12,000 FEET WITH NO
SIGNIFICANT WEATHER AND/OR OBSTRUCTIONS TO VISISBILITY.

NORTHEAST MONTANA


CITY           SKY/WX    TMP DP  RH WIND       PRES   REMARKS
GLASGOW        CLOUDY    18  13  80 E13       30.06S
PLENTYWOOD       N/A    N/A N/A N/A N7          N/A
WOLF POINT     CLOUDY    16  11  80 NE3       30.11S
JORDAN           N/A     24  18  77 W5        30.03S
WINNETT          N/A     10  10 100 SW2         N/A
SIDNEY         PTCLDY    10   3  72 W5        30.12R
GLENDIVE       CLOUDY    19  16  86 CALM      30.07R
MALTA            N/A     25  22  88 S2          N/A
SCOBEY           N/A     11   4  73 CALM      30.04S

FORT PECK REPORTS


CITY           SKY/WX    TMP DP  RH WIND       PRES   REMARKS
FORT PECK        N/A     22  18  85 E9          N/A
THE PINES        N/A     25  21  85 SE3         N/A

SOUTHEAST MONTANA


CITY           SKY/WX    TMP DP  RH WIND       PRES   REMARKS
BILLINGS       PTCLDY    21  18  88 SW5       29.99S
MILES CITY     CLOUDY    22  18  85 SE5       30.05S
BAKER          CLOUDY    19  14  81 N5        30.05R
LIVINGSTON     CLEAR      0  -5  79 NW10      29.97R WCI -16

CENTRAL MONTANA


CITY           SKY/WX    TMP DP  RH WIND       PRES   REMARKS
HAVRE          CLOUDY    21  18  88 W8        29.97S
LEWISTOWN      CLEAR      6   3  87 SE7       29.94S
GREAT FALLS    CLOUDY    19  14  81 SW7       29.94S
CUT BANK       CLOUDY    23  18  81 NW22      29.93R
HELENA         CLOUDY    18  14  84 CALM      29.99S
BUTTE          CLOUDY    11   8  88 CALM      29.95R
BOZEMAN        CLOUDY     9   6  88 CALM      30.00R

WESTERN MONTANA


CITY           SKY/WX    TMP DP  RH WIND       PRES   REMARKS
MISSOULA       CLOUDY    26  23  88 CALM      30.05S
KALISPELL      NOT AVBL

NORTH DAKOTA


CITY           SKY/WX    TMP DP  RH WIND       PRES   REMARKS
WILLISTON      FLURRIES  14   9  80 NW12      30.11S
DICKINSON      CLOUDY    18  11  74 NW14      30.03R
MINOT          CLEAR      6   1  80 NW13      30.09R WCI -10
BISMARCK       CLOUDY    23  18  81 N12       30.08R

SOUTHERN SASKATCHEWAN


CITY           SKY/WX    TMP DP  RH WIND       PRES   REMARKS
REGINA         CLOUDY     0  -4  85 NW6       30.12S
ESTEVAN        FLURRIES   7   1  78 W13       30.11R WCI  -9
SWIFT CURRENT  CLOUDY     7   5  92 SE7       30.00S



USA.gov is the U.S. government's official web portal to all federal, state and local government web resources and services.